THORAD AGENA D DEB, 42500

Orbit data source: Space-Track

THORAD AGENA D DEB, 42500 is space debris in SSO originally from a launch on Wed, 08 Apr 1970 UTC launched from the Air Force Western Test Range (AFWTR). Debris objects in space refer to the collection of defunct objects orbiting the Earth. Examples of debris include non-operational satellites, rocket bodies, and fragments generated from explosions, collisions, or faulty payload assembly.

Loading next visibility...
Identifier
42500, 1970-025RE
Orbit
SSO
Country
Flag of USUS
Related business
Manufacturer
Unknown
Mission
Spacecraft
Bus & Motor
Unknown
Mass
Unknown
Launch date (UTC)
1970-04-08 (56 years ago)
Launch vehicle
Unknown
Launch site
Air Force Western Test Range (AFWTR)
Object type
Payload
Rocket body
Debris
Shape & HBR
Unknown shape, 0.1 m
Radar Cross Section
Small (<0.1 m²)

Expand to show TLE details & history
Last TLE update: 2 days ago

TLE from 2 days ago
0 THORAD AGENA D DEB
1 42500U 70025RE  26121.35662348  .00000105  00000-0  21754-3 0  9992
2 42500  99.4444 344.1041 0010572   7.6173 171.8356 13.54017648614543
Epoch: 2026-05-01T08:33Z
TLE epoch observation values (Epoch: 2026-05-01T08:33:32.268Z)
Latitude
0.4131°
Longitude
176.49797°
Altitude
1,068.043 km
Speed
7.314 km/s
True Right ascension
10h 56m 41s
True Declination
0° 24' 39"
Sunlit
Object was in full shadow at epoch
Visualization orbit readout
Latitude
Unknown
Longitude
Unknown
Altitude
Unknown
Speed
Unknown
Apparent Right ascension
Unknown
Apparent Declination
Unknown
Sunlit
N/A
Visualization observer readout
Local Sidereal Time
12:59:55
Azimuth
Unknown
Elevation
Unknown
Doppler factor
Unknown
Orbital elements
Apogee altitude
1,062.654 km
Perigee altitude
1,046.938 km
Semi-major axis
7,432.933 km
Eccentricity
0.00106
Inclination
99.4444°
RAAN
344.1041°
Arg. of periapsis
7.6173°
True anomaly
171.85278°
Mean anomaly
171.8356°
Eccentric anomaly
171.84419°
Mean motion
3.3869 °/min
Orbital period
106.29 mins
BSTAR
0.00021754
Loading maneuver chart data...
Computing Atmospheric mass density...

Documentation

Showing up to 5 results
|